Lid_Strength_Index
10 10 11 11 11 11 11 12 13 15 15 13 13 12 13 12 12 12 12 10 9 9 8 7 6 5 4 3 3 3 2 1 0 -1 -2 -2 -2 -2
10 10 11 11 12 13 13 13 13 14 16 14 14 14 13 13 12 12 12 10 10 9 8 7 6 5 5 4 4 3 2 1 -0 -1 -2 -1 -1 -2
10 10 11 12 13 14 14 14 15 15 17 16 15 14 15 15 13 12 11 11 11 9 7 7 6 5 4 5 4 4 3 2 1 -0 -1 -1 -1 -1
11 11 12 12 14 15 15 16 16 16 17 18 16 16 15 14 13 13 12 11 10 8 7 7 5 5 5 5 5 4 3 2 2 1 1 1 0 -0
11 12 13 14 15 16 16 16 17 15 17 17 17 16 16 14 13 12 12 11 10 8 7 6 5 5 5 4 3 3 3 3 2 2 2 2 2 2
12 13 13 14 15 16 16 17 17 17 18 17 17 17 15 13 12 13 13 11 10 9 7 6 6 6 6 4 4 3 3 3 3 3 3 3 4 3
13 14 14 14 14 15 16 17 18 18 18 18 19 17 15 14 14 13 13 12 11 10 9 8 8 8 7 5 5 4 3 3 3 3 3 4 4 5
14 14 14 13 14 14 14 15 16 18 18 19 19 16 15 14 12 13 13 13 15 10 9 10 8 9 8 6 5 5 5 4 4 5 5 5 5 5
15 15 15 15 15 16 16 15 16 15 16 16 17 15 14 13 12 13 12 13 12 10 9 11 10 10 8 8 7 6 5 5 5 5 5 5 5 5
15 15 16 17 16 16 17 17 17 16 16 15 14 13 12 12 11 11 11 12 11 10 9 12 10 10 9 9 7 6 5 6 7 6 5 5 4 4
15 15 16 17 15 15 17 19 19 17 15 13 12 11 11 10 10 11 12 13 13 11 14 11 10 10 10 11 9 6 7 8 7 7 6 5 5 4
16 16 16 16 15 15 17 18 20 18 18 16 15 13 12 12 11 13 12 13 13 12 14 11 10 10 12 13 9 9 10 9 8 8 7 6 6 6
17 17 17 16 15 14 14 16 17 16 17 17 16 14 13 14 14 14 11 11 12 12 10 10 11 11 11 12 12 13 10 11 10 9 9 8 6 5
17 17 17 15 14 14 16 15 14 17 17 15 14 13 14 14 13 13 11 10 10 11 10 10 11 11 13 14 14 12 12 11 11 11 10 8 6 6
16 16 16 15 15 16 15 15 16 17 15 15 14 14 13 13 13 15 13 13 13 14 10 10 11 11 12 14 14 14 14 13 12 12 12 10 10 7
17 16 17 17 17 17 17 16 16 17 16 14 14 13 12 11 12 14 12 11 15 15 12 10 12 12 13 14 14 15 15 15 13 13 12 12 11 11
18 18 18 18 18 18 18 17 17 17 17 14 13 13 13 12 12 13 13 11 13 13 12 10 13 14 14 13 15 15 15 15 14 13 13 14 14 13
18 18 19 19 19 19 19 19 18 18 15 14 13 13 13 12 13 13 12 13 13 12 12 11 17 18 17 16 12 15 15 15 15 14 13 15 16 14
18 18 18 19 19 19 19 19 19 18 14 13 13 12 12 12 13 13 12 12 14 12 11 14 18 21 23 23 18 11 16 15 15 15 15 15 16 15
18 18 18 19 19 19 19 19 18 18 16 13 13 12 12 12 12 13 13 13 17 18 13 14 17 18 19 21 20 15 12 14 16 16 15 15 14 12
18 19 19 19 19 18 20 20 20 20 19 15 13 13 12 12 12 13 12 12 19 17 15 17 17 18 18 19 18 17 15 12 13 15 15 16 16 15
18 18 19 19 19 18 19 17 18 18 16 14 13 12 12 12 12 12 12 15 18 17 16 18 15 15 18 18 20 22 17 14 13 13 13 14 16 17
17 16 18 18 17 15 15 15 16 16 15 15 18 15 11 12 12 12 12 14 17 17 17 19 16 17 19 17 19 19 18 16 16 16 16 13 13 12